sat.trackr.live / text

‹ back to catalog

STARLINK-33832

NORAD 63637 · 2025-083D

PAYLOAD ACTIVE UNKNOWN

§ Identity

Operator
Country
US
Launch date
2025-04-25
Launch site
AFETR
Launch vehicle
Mass (kg)
RCS (m²)

Purposes: comms

External: N2YO · Heavens-Above · Gunter

§ Orbital elements

Epoch: 2026-05-24T21:14:55.002048Z

Period
94.26 min
Inclination
43.0015°
Eccentricity
0.0001754
Mean motion
15.27615688 rev/d
Perigee alt
481.7 km
Apogee alt
484.1 km
Semi-major
6,861.1 km
B*
8.4861e-4
RAAN
294.5907°
Arg perigee
283.6104°
Mean anomaly
76.4552°
Rev number
6,172

§ Raw data

STARLINK-338321 63637U 25083D   26144.88535882  .00023189  00000+0  84861-3 0  99992 63637  43.0015 294.5907 0001754 283.6104  76.4552 15.27615688 61721

JSON: /api/v1/satellites/63637 · /tle

For live sub-satellite position, see the globe view (requires WebGL).

§ Visibility from observer

Set your observer location to see the next 7 days of passes ≥ 10°. The values pass through the URL so the page stays shareable.

No JS? Fill the form by hand. The geolocation button needs JavaScript.